| time (UTC) | temp C | wind direction | speed KPH | gust KPH | rain 1hr cm | rain 24hr cm | rain mn cm | humidity % | barometer mb |
| 20260905224552 | 31 | 245 | 0.0 | 0.0 | 0.00 | 0.00 | 0.00 | 73 | 1008.8 |
| 20260905224014 | 31 | 245 | 0.0 | 0.0 | 0.00 | 0.00 | 0.00 | 73 | 1008.9 |
| 20260905223518 | 31 | 245 | 0.0 | 0.0 | 0.00 | 0.00 | 0.00 | 71 | 1009.0 |
| 20260905223043 | 31 | 245 | 0.0 | 0.0 | 0.00 | 0.00 | 0.00 | 71 | 1008.9 |
| 20260905222548 | 31 | 245 | 0.0 | 0.0 | 0.00 | 0.00 | 0.00 | 70 | 1008.8 |
| 20260905222004 | 32 | 245 | 0.0 | 0.0 | 0.00 | 0.00 | 0.00 | 69 | 1008.8 |
| 20260905221514 | 32 | 245 | 0.0 | 0.0 | 0.00 | 0.00 | 0.00 | 68 | 1008.8 |
| 20260905221028 | 32 | 245 | 0.0 | 0.0 | 0.00 | 0.00 | 0.00 | 67 | 1008.8 |
| 20260905220537 | 32 | 245 | 0.0 | 0.0 | 0.00 | 0.00 | 0.00 | 67 | 1008.9 |
| 20260905220056 | 32 | 245 | 0.0 | 0.0 | 0.00 | 0.00 | 0.00 | 66 | 1008.9 |
| 20260905215512 | 32 | 245 | 0.0 | 0.0 | 0.00 | 0.00 | 0.00 | 62 | 1009.0 |
| 20260905215024 | 32 | 245 | 0.0 | 0.0 | 0.00 | 0.00 | 0.00 | 64 | 1009.0 |
| 20260905214534 | 33 | 245 | 0.0 | 0.0 | 0.00 | 0.00 | 0.00 | 63 | 1009.1 |
| 20260905214048 | 33 | 245 | 0.0 | 0.0 | 0.00 | 0.00 | 0.00 | 61 | 1009.0 |
| 20260905213509 | 33 | 245 | 0.0 | 1.6 | 0.00 | 0.00 | 0.00 | 62 | 1009.1 |
| 20260905213027 | 33 | 149 | 0.0 | 1.6 | 0.00 | 0.00 | 0.00 | 61 | 1009.0 |
| 20260905212536 | 33 | 149 | 0.0 | 4.8 | 0.00 | 0.00 | 0.00 | 62 | 1009.0 |
| 20260905212049 | 33 | 306 | 0.0 | 6.4 | 0.00 | 0.00 | 0.00 | 60 | 1009.0 |
| 20260905211600 | 33 | 305 | 0.0 | 6.4 | 0.00 | 0.00 | 0.00 | 57 | 1009.0 |
| 20260905211506 | 33 | 51 | 0.0 | 4.8 | 0.00 | 0.00 | 0.00 | 57 | 1009.0 |
| 20260905211016 | 33 | 25 | 0.0 | 0.0 | 0.00 | 0.00 | 0.00 | 60 | 1009.1 |
| 20260905210534 | 33 | 308 | 0.0 | 1.6 | 0.00 | 0.00 | 0.00 | 59 | 1009.0 |
| 20260905210050 | 34 | 308 | 0.0 | 1.6 | 0.00 | 0.00 | 0.00 | 58 | 1009.2 |
| 20260905205558 | 34 | 271 | 0.0 | 0.0 | 0.00 | 0.00 | 0.00 | 58 | 1009.2 |
| 20260905205504 | 34 | 271 | 0.0 | 0.0 | 0.00 | 0.00 | 0.00 | 57 | 1009.2 |
| 20260905205014 | 34 | 271 | 0.0 | 1.6 | 0.00 | 0.00 | 0.00 | 60 | 1009.3 |
| 20260905204531 | 35 | 173 | 0.0 | 6.4 | 0.00 | 0.00 | 0.00 | 57 | 1009.4 |
| 20260905204037 | 35 | 205 | 0.0 | 6.4 | 0.00 | 0.00 | 0.00 | 58 | 1009.4 |
| 20260905203556 | 35 | 34 | 0.0 | 0.0 | 0.00 | 0.00 | 0.00 | 57 | 1009.4 |
| 20260905203015 | 35 | 5 | 0.0 | 0.0 | 0.00 | 0.00 | 0.00 | 56 | 1009.5 |
| 20260905202528 | 35 | 76 | 0.0 | 0.0 | 0.00 | 0.00 | 0.00 | 58 | 1009.6 |
| 20260905202036 | 35 | 195 | 0.0 | 1.6 | 0.00 | 0.00 | 0.00 | 58 | 1009.7 |
| 20260905201601 | 34 | 195 | 0.0 | 1.6 | 0.00 | 0.00 | 0.00 | 57 | 1009.7 |
| 20260905201059 | 35 | 184 | 0.0 | 0.0 | 0.00 | 0.00 | 0.00 | 57 | 1009.7 |
| 20260905201002 | 35 | 184 | 0.0 | 0.0 | 0.00 | 0.00 | 0.00 | 57 | 1009.8 |
| 20260905200521 | 35 | 246 | 0.0 | 0.0 | 0.00 | 0.00 | 0.00 | 57 | 1009.9 |
| 20260905200040 | 35 | 246 | 0.0 | 1.6 | 0.00 | 0.00 | 0.00 | 57 | 1009.9 |
| 20260905195558 | 35 | 186 | 0.0 | 1.6 | 0.00 | 0.00 | 0.00 | 58 | 1009.9 |
| 20260905195011 | 35 | 280 | 0.0 | 0.0 | 0.00 | 0.00 | 0.00 | 57 | 1009.9 |
| 20260905194522 | 34 | 329 | 0.0 | 0.0 | 0.00 | 0.00 | 0.00 | 59 | 1010.1 |
| 20260905194032 | 35 | 229 | 0.0 | 0.0 | 0.00 | 0.00 | 0.00 | 56 | 1010.3 |
| 20260905193554 | 35 | 229 | 0.0 | 0.0 | 0.00 | 0.00 | 0.00 | 57 | 1010.3 |
| 20260905193015 | 35 | 229 | 0.0 | 0.0 | 0.00 | 0.00 | 0.00 | 58 | 1010.3 |
| 20260905192524 | 35 | 76 | 0.0 | 0.0 | 0.00 | 0.00 | 0.00 | 57 | 1010.3 |
| 20260905192036 | 34 | 338 | 0.0 | 1.6 | 0.00 | 0.00 | 0.00 | 58 | 1010.3 |
| 20260905191547 | 34 | 315 | 0.0 | 1.6 | 0.00 | 0.00 | 0.00 | 59 | 1010.2 |
| 20260905191012 | 34 | 328 | 0.0 | 9.7 | 0.00 | 0.00 | 0.00 | 58 | 1010.4 |
| 20260905190523 | 34 | 178 | 3.2 | 9.7 | 0.00 | 0.00 | 0.00 | 57 | 1010.6 |
| 20260905190038 | 34 | 321 | 0.0 | 0.0 | 0.00 | 0.00 | 0.00 | 59 | 1010.6 |
| 20260905185547 | 34 | 169 | 0.0 | 1.6 | 0.00 | 0.00 | 0.00 | 58 | 1010.6 |
| 20260905185005 | 34 | 148 | 0.0 | 1.6 | 0.00 | 0.00 | 0.00 | 59 | 1010.7 |
| 20260905184529 | 34 | 171 | 0.0 | 0.0 | 0.00 | 0.00 | 0.00 | 59 | 1010.8 |
| 20260905184039 | 34 | 232 | 0.0 | 4.8 | 0.00 | 0.00 | 0.00 | 59 | 1010.9 |
| 20260905183550 | 33 | 186 | 0.0 | 4.8 | 0.00 | 0.00 | 0.00 | 59 | 1010.9 |
| 20260905183007 | 33 | 157 | 0.0 | 0.0 | 0.00 | 0.00 | 0.00 | 58 | 1010.9 |
| 20260905182521 | 33 | 181 | 0.0 | 8.0 | 0.00 | 0.00 | 0.00 | 59 | 1010.9 |
| 20260905182036 | 33 | 181 | 0.0 | 8.0 | 0.00 | 0.00 | 0.00 | 60 | 1010.9 |
| 20260905181542 | 33 | 5 | 0.0 | 0.0 | 0.00 | 0.00 | 0.00 | 59 | 1011.0 |
| 20260905181055 | 33 | 236 | 0.0 | 0.0 | 0.00 | 0.00 | 0.00 | 60 | 1011.1 |
| 20260905180508 | 33 | 260 | 0.0 | 8.0 | 0.00 | 0.00 | 0.00 | 62 | 1011.1 |
| 20260905180028 | 33 | 182 | 1.6 | 8.0 | 0.00 | 0.00 | 0.00 | 61 | 1011.2 |
| 20260905175537 | 33 | 191 | 1.6 | 8.0 | 0.00 | 0.00 | 0.00 | 63 | 1011.2 |
| 20260905175052 | 32 | 173 | 0.0 | 8.0 | 0.00 | 0.00 | 0.00 | 61 | 1011.3 |
| 20260905174504 | 32 | 178 | 4.8 | 8.0 | 0.00 | 0.00 | 0.00 | 62 | 1011.4 |
| 20260905174021 | 32 | 155 | 0.0 | 1.6 | 0.00 | 0.00 | 0.00 | 63 | 1011.5 |
| 20260905173537 | 32 | 176 | 0.0 | 0.0 | 0.00 | 0.00 | 0.00 | 63 | 1011.5 |
| 20260905173050 | 32 | 269 | 0.0 | 0.0 | 0.00 | 0.00 | 0.00 | 64 | 1011.5 |
| 20260905172559 | 32 | 123 | 0.0 | 6.4 | 0.00 | 0.00 | 0.00 | 65 | 1011.6 |
| 20260905172506 | 32 | 199 | 0.0 | 6.4 | 0.00 | 0.00 | 0.00 | 65 | 1011.6 |
| 20260905172017 | 32 | 146 | 0.0 | 6.4 | 0.00 | 0.00 | 0.00 | 63 | 1011.7 |
| 20260905171536 | 32 | 190 | 0.0 | 4.8 | 0.00 | 0.00 | 0.00 | 66 | 1011.7 |
| 20260905171048 | 32 | 175 | 0.0 | 6.4 | 0.00 | 0.00 | 0.00 | 65 | 1011.9 |
| 20260905170503 | 31 | 150 | 0.0 | 0.0 | 0.00 | 0.00 | 0.00 | 68 | 1011.9 |
| 20260905170015 | 31 | 181 | 0.0 | 0.0 | 0.00 | 0.00 | 0.00 | 69 | 1012.0 |
| 20260905165527 | 31 | 172 | 0.0 | 0.0 | 0.00 | 0.00 | 0.00 | 68 | 1012.1 |
| 20260905165037 | 31 | 149 | 0.0 | 0.0 | 0.00 | 0.00 | 0.00 | 70 | 1012.3 |
| 20260905164602 | 30 | 149 | 0.0 | 0.0 | 0.00 | 0.00 | 0.00 | 72 | 1012.4 |
| 20260905164005 | 30 | 248 | 0.0 | 4.8 | 0.00 | 0.00 | 0.00 | 71 | 1012.5 |
| 20260905163518 | 30 | 167 | 1.6 | 4.8 | 0.00 | 0.00 | 0.00 | 71 | 1012.5 |
| 20260905163027 | 30 | 163 | 0.0 | 0.0 | 0.00 | 0.00 | 0.00 | 72 | 1012.5 |
| 20260905162544 | 30 | 194 | 0.0 | 3.2 | 0.00 | 0.00 | 0.00 | 74 | 1012.5 |
| 20260905162054 | 30 | 172 | 0.0 | 8.0 | 0.00 | 0.00 | 0.00 | 74 | 1012.6 |
| 20260905161509 | 29 | 190 | 3.2 | 8.0 | 0.00 | 0.00 | 0.00 | 74 | 1012.5 |
| 20260905161024 | 29 | 238 | 0.0 | 4.8 | 0.00 | 0.00 | 0.00 | 75 | 1012.6 |
| 20260905160533 | 29 | 168 | 0.0 | 6.4 | 0.00 | 0.00 | 0.00 | 77 | 1012.6 |
| 20260905160043 | 28 | 189 | 0.0 | 1.6 | 0.00 | 0.00 | 0.00 | 78 | 1012.6 |
| 20260905155600 | 28 | 189 | 0.0 | 4.8 | 0.00 | 0.00 | 0.00 | 78 | 1012.6 |
| 20260905155009 | 28 | 140 | 1.6 | 12.9 | 0.00 | 0.00 | 0.00 | 80 | 1012.8 |
| 20260905154525 | 28 | 186 | 0.0 | 1.6 | 0.00 | 0.00 | 0.00 | 81 | 1012.8 |
| 20260905154036 | 28 | 84 | 0.0 | 9.7 | 0.00 | 0.00 | 0.00 | 81 | 1012.9 |
| 20260905153548 | 28 | 167 | 0.0 | 9.7 | 0.00 | 0.00 | 0.00 | 81 | 1012.9 |
| 20260905153059 | 28 | 249 | 0.0 | 0.0 | 0.00 | 0.00 | 0.00 | 82 | 1012.9 |
| 20260905153011 | 28 | 144 | 0.0 | 0.0 | 0.00 | 0.00 | 0.00 | 84 | 1012.9 |
| 20260905152515 | 27 | 162 | 0.0 | 11.3 | 0.00 | 0.00 | 0.00 | 84 | 1013.1 |
| 20260905152032 | 27 | 252 | 0.0 | 11.3 | 0.00 | 0.00 | 0.00 | 84 | 1013.1 |
| 20260905151541 | 27 | 192 | 0.0 | 6.4 | 0.00 | 0.00 | 0.00 | 86 | 1013.1 |
| 20260905151058 | 27 | 308 | 0.0 | 6.4 | 0.00 | 0.00 | 0.00 | 86 | 1013.1 |
| 20260905150511 | 26 | 134 | 0.0 | 8.0 | 0.00 | 0.00 | 0.00 | 89 | 1013.2 |
| 20260905150023 | 26 | 213 | 0.0 | 4.8 | 0.00 | 0.00 | 0.00 | 88 | 1013.2 |
| 20260905145531 | 26 | 119 | 0.0 | 8.0 | 0.00 | 0.00 | 0.00 | 89 | 1013.2 |
| 20260905145047 | 26 | 74 | 1.6 | 8.0 | 0.00 | 0.00 | 0.00 | 88 | 1013.2 |
| 20260905144558 | 26 | 96 | 0.0 | 4.8 | 0.00 | 0.00 | 0.00 | 91 | 1013.1 |
| 20260905144013 | 25 | 125 | 0.0 | 4.8 | 0.00 | 0.00 | 0.00 | 92 | 1013.0 |
| 20260905143524 | 25 | 106 | 0.0 | 0.0 | 0.00 | 0.00 | 0.00 | 92 | 1013.0 |
| 20260905143037 | 25 | 264 | 0.0 | 8.0 | 0.00 | 0.00 | 0.00 | 92 | 1013.1 |
| 20260905142554 | 25 | 269 | 0.0 | 8.0 | 0.00 | 0.00 | 0.00 | 91 | 1013.2 |
| 20260905142011 | 25 | 246 | 0.0 | 4.8 | 0.00 | 0.00 | 0.00 | 92 | 1013.1 |
| 20260905141522 | 25 | 105 | 0.0 | 6.4 | 0.00 | 0.00 | 0.00 | 93 | 1013.0 |
| 20260905141035 | 24 | 216 | 0.0 | 6.4 | 0.00 | 0.00 | 0.00 | 94 | 1013.2 |
| 20260905140550 | 24 | 14 | 0.0 | 3.2 | 0.00 | 0.00 | 0.00 | 94 | 1013.4 |
| 20260905140012 | 24 | 5 | 0.0 | 12.9 | 0.00 | 0.00 | 0.00 | 94 | 1013.4 |
| 20260905135521 | 24 | 17 | 0.0 | 0.0 | 0.00 | 0.00 | 0.00 | 94 | 1013.4 |
| 20260905135035 | 24 | 90 | 0.0 | 0.0 | 0.00 | 0.00 | 0.00 | 94 | 1013.5 |
| 20260905134552 | 24 | 348 | 0.0 | 0.0 | 0.00 | 0.00 | 0.00 | 94 | 1013.4 |
| 20260905134007 | 24 | 348 | 0.0 | 0.0 | 0.00 | 0.00 | 0.00 | 94 | 1013.4 |
| 20260905133521 | 24 | 348 | 0.0 | 0.0 | 0.00 | 0.00 | 0.00 | 94 | 1013.7 |
| 20260905133034 | 24 | 348 | 0.0 | 0.0 | 0.00 | 0.00 | 0.00 | 94 | 1014.0 |
| 20260905132554 | 24 | 333 | 0.0 | 3.2 | 0.00 | 0.00 | 0.00 | 95 | 1014.0 |
| 20260905132005 | 24 | 30 | 0.0 | 6.4 | 0.00 | 0.00 | 0.00 | 94 | 1014.0 |
| 20260905131520 | 24 | 62 | 0.0 | 6.4 | 0.00 | 0.00 | 0.00 | 96 | 1013.5 |
| 20260905131039 | 24 | 62 | 0.0 | 4.8 | 0.00 | 0.00 | 0.00 | 95 | 1013.6 |
| 20260905130557 | 24 | 184 | 0.0 | 0.0 | 0.00 | 0.00 | 0.00 | 95 | 1013.1 |
| 20260905130008 | 24 | 184 | 0.0 | 0.0 | 0.00 | 0.00 | 0.00 | 96 | 1013.1 |
| 20260905125521 | 23 | 249 | 0.0 | 0.0 | 0.00 | 0.00 | 0.00 | 97 | 1013.0 |
| 20260905125031 | 23 | 249 | 0.0 | 0.0 | 0.00 | 0.00 | 0.00 | 96 | 1012.9 |
| 20260905124545 | 23 | 312 | 0.0 | 0.0 | 0.00 | 0.00 | 0.00 | 97 | 1013.0 |
| 20260905124100 | 23 | 312 | 0.0 | 4.8 | 0.00 | 0.00 | 0.00 | 97 | 1012.9 |
| 20260905124001 | 23 | 312 | 0.0 | 4.8 | 0.00 | 0.00 | 0.00 | 97 | 1012.9 |
| 20260905123515 | 23 | 300 | 0.0 | 4.8 | 0.00 | 0.00 | 0.00 | 97 | 1013.1 |
| 20260905123025 | 23 | 269 | 0.0 | 1.6 | 0.00 | 0.00 | 0.00 | 97 | 1013.0 |
| 20260905122543 | 23 | 360 | 0.0 | 0.0 | 0.00 | 0.00 | 0.00 | 98 | 1013.0 |
| 20260905122002 | 23 | 360 | 0.0 | 9.7 | 0.00 | 0.00 | 0.00 | 98 | 1013.1 |
| 20260905121517 | 23 | 341 | 0.0 | 4.8 | 0.00 | 0.00 | 0.00 | 99 | 1013.0 |
| 20260905121035 | 23 | 222 | 0.0 | 0.0 | 0.00 | 0.00 | 0.00 | 99 | 1013.0 |
| 20260905120541 | 23 | 222 | 0.0 | 0.0 | 0.00 | 0.00 | 0.00 | 99 | 1012.8 |
| 20260905120053 | 23 | 252 | 0.0 | 0.0 | 0.00 | 0.00 | 0.00 | 99 | 1012.7 |
| 20260905120001 | 23 | 252 | 0.0 | 0.0 | 0.00 | 0.00 | 0.00 | 99 | 1012.7 |
| 20260905115511 | 23 | 252 | 0.0 | 1.6 | 0.00 | 0.00 | 0.00 | 99 | 1012.5 |
| 20260905115025 | 23 | 24 | 0.0 | 1.6 | 0.00 | 0.00 | 0.00 | 98 | 1012.6 |
| 20260905114542 | 23 | 327 | 0.0 | 6.4 | 0.00 | 0.00 | 0.00 | 99 | 1012.3 |
| 20260905114057 | 23 | 48 | 1.6 | 6.4 | 0.00 | 0.00 | 0.00 | 98 | 1012.5 |
| 20260905113509 | 23 | 307 | 0.0 | 0.0 | 0.00 | 0.00 | 0.00 | 98 | 1012.2 |
| 20260905113023 | 23 | 307 | 0.0 | 0.0 | 0.00 | 0.00 | 0.00 | 98 | 1012.0 |
| 20260905112533 | 23 | 307 | 0.0 | 0.0 | 0.00 | 0.00 | 0.00 | 98 | 1011.9 |
| 20260905112051 | 23 | 155 | 0.0 | 0.0 | 0.00 | 0.00 | 0.00 | 98 | 1011.9 |
| 20260905111507 | 23 | 155 | 0.0 | 0.0 | 0.00 | 0.00 | 0.00 | 98 | 1011.8 |
| 20260905111021 | 23 | 172 | 0.0 | 0.0 | 0.00 | 0.00 | 0.00 | 98 | 1011.7 |
| 20260905110533 | 23 | 172 | 0.0 | 0.0 | 0.00 | 0.00 | 0.00 | 98 | 1011.7 |
| 20260905110053 | 23 | 172 | 0.0 | 0.0 | 0.00 | 0.00 | 0.00 | 98 | 1011.5 |
| 20260905105508 | 23 | 172 | 0.0 | 0.0 | 0.00 | 0.00 | 0.00 | 98 | 1011.4 |
| 20260905105020 | 23 | 172 | 0.0 | 0.0 | 0.00 | 0.00 | 0.00 | 98 | 1011.4 |
| 20260905104529 | 23 | 172 | 0.0 | 0.0 | 0.00 | 0.00 | 0.00 | 98 | 1011.4 |
| 20260905104049 | 23 | 172 | 0.0 | 0.0 | 0.00 | 0.00 | 0.00 | 98 | 1011.4 |
| 20260905103558 | 23 | 172 | 0.0 | 0.0 | 0.00 | 0.00 | 0.00 | 98 | 1011.3 |
| 20260905103015 | 23 | 172 | 0.0 | 0.0 | 0.00 | 0.00 | 0.00 | 98 | 1011.3 |
| 20260905102534 | 23 | 172 | 0.0 | 0.0 | 0.00 | 0.00 | 0.00 | 98 | 1011.4 |
| 20260905102047 | 23 | 172 | 0.0 | 0.0 | 0.00 | 0.00 | 0.00 | 98 | 1011.4 |
| 20260905101603 | 23 | 172 | 0.0 | 0.0 | 0.00 | 0.00 | 0.00 | 98 | 1011.5 |
| 20260905101505 | 23 | 172 | 0.0 | 0.0 | 0.00 | 0.00 | 0.00 | 98 | 1011.5 |
| 20260905101012 | 23 | 172 | 0.0 | 0.0 | 0.00 | 0.00 | 0.00 | 98 | 1011.5 |
| 20260905100527 | 23 | 172 | 0.0 | 0.0 | 0.00 | 0.00 | 0.00 | 97 | 1011.5 |
| 20260905100043 | 23 | 172 | 0.0 | 0.0 | 0.00 | 0.00 | 0.00 | 97 | 1011.4 |
| 20260905095504 | 23 | 172 | 0.0 | 0.0 | 0.00 | 0.00 | 0.00 | 97 | 1011.4 |
| 20260905095016 | 23 | 172 | 0.0 | 0.0 | 0.00 | 0.00 | 0.00 | 97 | 1011.3 |
| 20260905094527 | 23 | 172 | 0.0 | 0.0 | 0.00 | 0.00 | 0.00 | 97 | 1011.3 |
| 20260905094036 | 23 | 172 | 0.0 | 0.0 | 0.00 | 0.00 | 0.00 | 97 | 1011.2 |
| 20260905093552 | 24 | 172 | 0.0 | 0.0 | 0.00 | 0.00 | 0.00 | 97 | 1011.1 |
| 20260905093004 | 24 | 172 | 0.0 | 0.0 | 0.00 | 0.00 | 0.00 | 97 | 1011.0 |
| 20260905092518 | 24 | 172 | 0.0 | 0.0 | 0.00 | 0.00 | 0.00 | 97 | 1010.8 |
| 20260905092031 | 24 | 172 | 0.0 | 0.0 | 0.00 | 0.00 | 0.00 | 97 | 1010.8 |
| 20260905091544 | 24 | 172 | 0.0 | 0.0 | 0.00 | 0.00 | 0.00 | 97 | 1010.7 |
| 20260905091054 | 24 | 172 | 0.0 | 0.0 | 0.00 | 0.00 | 0.00 | 97 | 1010.6 |
| 20260905090520 | 24 | 172 | 0.0 | 0.0 | 0.00 | 0.00 | 0.00 | 97 | 1010.6 |
| 20260905090030 | 24 | 172 | 0.0 | 0.0 | 0.00 | 0.00 | 0.00 | 97 | 1010.7 |
| 20260905085548 | 24 | 172 | 0.0 | 0.0 | 0.00 | 0.00 | 0.00 | 97 | 1010.6 |
| 20260905085058 | 24 | 172 | 0.0 | 0.0 | 0.00 | 0.00 | 0.00 | 97 | 1010.6 |
| 20260905084510 | 24 | 172 | 0.0 | 0.0 | 0.00 | 0.00 | 0.00 | 97 | 1010.7 |
| 20260905084026 | 24 | 172 | 0.0 | 0.0 | 0.00 | 0.00 | 0.00 | 97 | 1010.7 |
| 20260905083544 | 24 | 172 | 0.0 | 0.0 | 0.00 | 0.00 | 0.00 | 97 | 1010.6 |
| 20260905083101 | 25 | 172 | 0.0 | 0.0 | 0.00 | 0.00 | 0.00 | 97 | 1010.7 |
| 20260905083008 | 25 | 172 | 0.0 | 0.0 | 0.00 | 0.00 | 0.00 | 97 | 1010.7 |
| 20260905082516 | 25 | 172 | 0.0 | 0.0 | 0.00 | 0.00 | 0.00 | 97 | 1010.8 |
| 20260905082031 | 25 | 172 | 0.0 | 0.0 | 0.00 | 0.00 | 0.00 | 97 | 1010.8 |
| 20260905081540 | 25 | 172 | 0.0 | 0.0 | 0.00 | 0.00 | 0.00 | 97 | 1010.8 |
| 20260905081057 | 25 | 172 | 0.0 | 0.0 | 0.00 | 0.00 | 0.00 | 97 | 1010.7 |
| 20260905080508 | 25 | 172 | 0.0 | 0.0 | 0.00 | 0.00 | 0.00 | 97 | 1010.7 |
| 20260905080022 | 25 | 172 | 0.0 | 0.0 | 0.00 | 0.00 | 0.00 | 97 | 1010.6 |
| 20260905075531 | 25 | 172 | 0.0 | 0.0 | 0.00 | 0.00 | 0.00 | 97 | 1010.7 |
| 20260905075049 | 25 | 172 | 0.0 | 0.0 | 0.00 | 0.00 | 0.00 | 97 | 1010.8 |
| 20260905074507 | 25 | 172 | 0.0 | 0.0 | 0.00 | 0.00 | 0.00 | 96 | 1010.9 |
| 20260905074022 | 25 | 172 | 0.0 | 0.0 | 0.00 | 0.00 | 0.00 | 96 | 1011.1 |
| 20260905073534 | 25 | 172 | 0.0 | 0.0 | 0.00 | 0.00 | 0.00 | 97 | 1011.1 |
| 20260905073047 | 25 | 172 | 0.0 | 0.0 | 0.00 | 0.00 | 0.00 | 96 | 1011.1 |
| 20260905072559 | 25 | 172 | 0.0 | 0.0 | 0.00 | 0.00 | 0.00 | 96 | 1011.1 |
| 20260905072503 | 25 | 172 | 0.0 | 0.0 | 0.00 | 0.00 | 0.00 | 96 | 1011.1 |
| 20260905072026 | 25 | 172 | 0.0 | 0.0 | 0.00 | 0.00 | 0.00 | 96 | 1011.1 |
| 20260905071532 | 25 | 172 | 0.0 | 0.0 | 0.00 | 0.00 | 0.00 | 96 | 1011.2 |
| 20260905071047 | 25 | 172 | 0.0 | 0.0 | 0.00 | 0.00 | 0.00 | 96 | 1011.2 |
| 20260905070601 | 25 | 172 | 0.0 | 0.0 | 0.00 | 0.00 | 0.00 | 96 | 1011.2 |
| 20260905070016 | 25 | 172 | 0.0 | 0.0 | 0.00 | 0.00 | 0.00 | 96 | 1011.2 |
| 20260905065535 | 25 | 172 | 0.0 | 0.0 | 0.00 | 0.00 | 0.00 | 96 | 1011.3 |
| 20260905065046 | 25 | 172 | 0.0 | 0.0 | 0.00 | 0.00 | 0.00 | 96 | 1011.3 |
| 20260905064556 | 25 | 172 | 0.0 | 0.0 | 0.00 | 0.00 | 0.00 | 95 | 1011.3 |
| 20260905064503 | 25 | 172 | 0.0 | 0.0 | 0.00 | 0.00 | 0.00 | 96 | 1011.3 |
| 20260905064015 | 25 | 172 | 0.0 | 0.0 | 0.00 | 0.00 | 0.00 | 96 | 1011.3 |
| 20260905063530 | 25 | 172 | 0.0 | 0.0 | 0.00 | 0.00 | 0.00 | 95 | 1011.4 |
| 20260905063042 | 25 | 172 | 0.0 | 0.0 | 0.00 | 0.00 | 0.00 | 96 | 1011.5 |
| 20260905062557 | 25 | 172 | 0.0 | 0.0 | 0.00 | 0.00 | 0.00 | 96 | 1011.6 |
| 20260905062006 | 25 | 172 | 0.0 | 0.0 | 0.00 | 0.00 | 0.00 | 95 | 1011.8 |
| 20260905061530 | 25 | 172 | 0.0 | 0.0 | 0.00 | 0.00 | 0.00 | 96 | 1011.8 |
| 20260905061030 | 25 | 172 | 0.0 | 0.0 | 0.00 | 0.00 | 0.00 | 96 | 1011.8 |
| 20260905060546 | 25 | 172 | 0.0 | 0.0 | 0.00 | 0.00 | 0.00 | 96 | 1011.8 |
| 20260905060056 | 25 | 172 | 0.0 | 0.0 | 0.00 | 0.00 | 0.00 | 95 | 1011.9 |
| 20260905055517 | 25 | 172 | 0.0 | 0.0 | 0.00 | 0.00 | 0.00 | 95 | 1011.9 |
| 20260905055024 | 25 | 172 | 0.0 | 0.0 | 0.00 | 0.00 | 0.00 | 95 | 1011.9 |
| 20260905054540 | 25 | 172 | 0.0 | 0.0 | 0.00 | 0.00 | 0.00 | 95 | 1012.0 |
| 20260905054050 | 25 | 172 | 0.0 | 0.0 | 0.00 | 0.00 | 0.00 | 95 | 1012.1 |
| 20260905053508 | 25 | 172 | 0.0 | 0.0 | 0.00 | 0.00 | 0.00 | 95 | 1012.1 |
| 20260905053019 | 25 | 172 | 0.0 | 0.0 | 0.00 | 0.00 | 0.00 | 95 | 1012.1 |
| 20260905052529 | 25 | 172 | 0.0 | 0.0 | 0.00 | 0.00 | 0.00 | 95 | 1012.1 |
| 20260905052045 | 25 | 172 | 0.0 | 0.0 | 0.00 | 0.00 | 0.00 | 95 | 1012.1 |
| 20260905051558 | 25 | 172 | 0.0 | 0.0 | 0.00 | 0.00 | 0.00 | 95 | 1012.1 |
| 20260905051010 | 25 | 172 | 0.0 | 0.0 | 0.00 | 0.00 | 0.00 | 95 | 1012.1 |
| 20260905050524 | 25 | 172 | 0.0 | 0.0 | 0.00 | 0.00 | 0.00 | 94 | 1012.1 |
| 20260905050040 | 25 | 172 | 0.0 | 0.0 | 0.00 | 0.00 | 0.00 | 94 | 1012.2 |
| 20260905045557 | 25 | 172 | 0.0 | 0.0 | 0.00 | 0.00 | 0.00 | 94 | 1012.2 |
| 20260905045014 | 25 | 172 | 0.0 | 0.0 | 0.00 | 0.00 | 0.00 | 94 | 1012.3 |
| 20260905044528 | 25 | 172 | 0.0 | 0.0 | 0.00 | 0.00 | 0.00 | 94 | 1012.2 |
| 20260905044036 | 25 | 172 | 0.0 | 0.0 | 0.00 | 0.00 | 0.00 | 94 | 1012.2 |
| 20260905043550 | 25 | 172 | 0.0 | 0.0 | 0.00 | 0.00 | 0.00 | 94 | 1012.2 |
| 20260905043006 | 25 | 172 | 0.0 | 0.0 | 0.00 | 0.00 | 0.00 | 94 | 1012.1 |
| 20260905042516 | 25 | 172 | 0.0 | 0.0 | 0.00 | 0.00 | 0.00 | 94 | 1012.1 |
| 20260905042032 | 25 | 172 | 0.0 | 0.0 | 0.00 | 0.00 | 0.00 | 94 | 1012.1 |
| 20260905041549 | 25 | 172 | 0.0 | 0.0 | 0.00 | 0.00 | 0.00 | 94 | 1012.1 |
| 20260905041055 | 25 | 172 | 0.0 | 0.0 | 0.00 | 0.00 | 0.00 | 93 | 1012.2 |
| 20260905040507 | 25 | 172 | 0.0 | 0.0 | 0.00 | 0.00 | 0.00 | 93 | 1012.2 |
| 20260905040022 | 25 | 172 | 0.0 | 0.0 | 0.00 | 0.00 | 0.00 | 93 | 1012.2 |
| 20260905035525 | 25 | 172 | 0.0 | 0.0 | 0.00 | 0.00 | 0.00 | 93 | 1012.2 |
| 20260905035039 | 25 | 172 | 0.0 | 0.0 | 0.00 | 0.00 | 0.00 | 93 | 1012.2 |
| 20260905034557 | 25 | 172 | 0.0 | 0.0 | 0.00 | 0.00 | 0.00 | 92 | 1012.2 |
| 20260905034008 | 25 | 172 | 0.0 | 0.0 | 0.00 | 0.00 | 0.00 | 92 | 1012.3 |
| 20260905033519 | 25 | 172 | 0.0 | 0.0 | 0.00 | 0.00 | 0.00 | 92 | 1012.3 |
| 20260905033034 | 25 | 172 | 0.0 | 0.0 | 0.00 | 0.00 | 0.00 | 92 | 1012.3 |
| 20260905032543 | 25 | 172 | 0.0 | 0.0 | 0.00 | 0.00 | 0.00 | 92 | 1012.4 |
| 20260905032010 | 25 | 172 | 0.0 | 0.0 | 0.00 | 0.00 | 0.00 | 92 | 1012.3 |
| 20260905031523 | 26 | 172 | 0.0 | 0.0 | 0.00 | 0.00 | 0.00 | 91 | 1012.3 |
| 20260905031033 | 26 | 172 | 0.0 | 0.0 | 0.00 | 0.00 | 0.00 | 92 | 1012.3 |
| 20260905030547 | 26 | 172 | 0.0 | 0.0 | 0.00 | 0.00 | 0.00 | 91 | 1012.3 |
| 20260905030055 | 26 | 172 | 0.0 | 0.0 | 0.00 | 0.00 | 0.00 | 91 | 1012.3 |
| 20260905025512 | 26 | 172 | 0.0 | 0.0 | 0.00 | 0.00 | 0.00 | 90 | 1012.2 |
| 20260905025030 | 26 | 172 | 0.0 | 0.0 | 0.00 | 0.00 | 0.00 | 90 | 1012.2 |
| 20260905024549 | 26 | 172 | 0.0 | 0.0 | 0.00 | 0.00 | 0.00 | 91 | 1012.3 |
| 20260905024059 | 26 | 172 | 0.0 | 0.0 | 0.00 | 0.00 | 0.00 | 91 | 1012.2 |
| 20260905024001 | 26 | 172 | 0.0 | 0.0 | 0.00 | 0.00 | 0.00 | 91 | 1012.2 |
| 20260905023515 | 26 | 172 | 0.0 | 0.0 | 0.00 | 0.00 | 0.00 | 90 | 1012.1 |
| 20260905023025 | 26 | 172 | 0.0 | 0.0 | 0.00 | 0.00 | 0.00 | 90 | 1012.0 |
| 20260905022547 | 26 | 172 | 0.0 | 0.0 | 0.00 | 0.00 | 0.00 | 90 | 1012.1 |
| 20260905022059 | 26 | 172 | 0.0 | 0.0 | 0.00 | 0.00 | 0.00 | 89 | 1012.0 |
| 20260905022001 | 26 | 172 | 0.0 | 0.0 | 0.00 | 0.00 | 0.00 | 89 | 1012.0 |
| 20260905021527 | 26 | 172 | 0.0 | 0.0 | 0.00 | 0.00 | 0.00 | 90 | 1012.0 |
| 20260905021025 | 26 | 172 | 0.0 | 0.0 | 0.00 | 0.00 | 0.00 | 89 | 1012.0 |
| 20260905020540 | 26 | 172 | 0.0 | 0.0 | 0.00 | 0.00 | 0.00 | 89 | 1012.0 |
| 20260905020059 | 26 | 172 | 0.0 | 0.0 | 0.00 | 0.00 | 0.00 | 89 | 1011.9 |
| 20260905020002 | 27 | 172 | 0.0 | 0.0 | 0.00 | 0.00 | 0.00 | 88 | 1011.9 |
| 20260905015518 | 27 | 172 | 0.0 | 0.0 | 0.00 | 0.00 | 0.00 | 88 | 1012.0 |
| 20260905015024 | 27 | 172 | 0.0 | 0.0 | 0.00 | 0.00 | 0.00 | 88 | 1012.0 |
| 20260905014538 | 27 | 172 | 0.0 | 0.0 | 0.00 | 0.00 | 0.00 | 88 | 1011.9 |
| 20260905014050 | 27 | 172 | 0.0 | 0.0 | 0.00 | 0.00 | 0.00 | 87 | 1011.9 |
| 20260905013505 | 27 | 172 | 0.0 | 0.0 | 0.00 | 0.00 | 0.00 | 87 | 1011.8 |
| 20260905013022 | 27 | 172 | 0.0 | 0.0 | 0.00 | 0.00 | 0.00 | 87 | 1011.7 |
| 20260905012532 | 27 | 172 | 0.0 | 0.0 | 0.00 | 0.00 | 0.00 | 86 | 1011.7 |
| 20260905012051 | 27 | 172 | 0.0 | 0.0 | 0.00 | 0.00 | 0.00 | 87 | 1011.7 |
| 20260905011559 | 27 | 172 | 0.0 | 0.0 | 0.00 | 0.00 | 0.00 | 86 | 1011.7 |
| 20260905011017 | 28 | 172 | 0.0 | 0.0 | 0.00 | 0.00 | 0.00 | 85 | 1011.6 |
| 20260905010527 | 28 | 172 | 0.0 | 0.0 | 0.00 | 0.00 | 0.00 | 84 | 1011.6 |
| 20260905010043 | 28 | 172 | 0.0 | 0.0 | 0.00 | 0.00 | 0.00 | 84 | 1011.6 |
| 20260905005558 | 28 | 172 | 0.0 | 0.0 | 0.00 | 0.00 | 0.00 | 83 | 1011.4 |
| 20260905005017 | 28 | 172 | 0.0 | 0.0 | 0.00 | 0.00 | 0.00 | 83 | 1011.3 |
| 20260905004533 | 28 | 172 | 0.0 | 0.0 | 0.00 | 0.00 | 0.00 | 83 | 1011.2 |
| 20260905004045 | 28 | 172 | 0.0 | 0.0 | 0.00 | 0.00 | 0.00 | 83 | 1011.2 |
| 20260905003558 | 28 | 172 | 0.0 | 0.0 | 0.00 | 0.00 | 0.00 | 83 | 1011.2 |
| 20260905003502 | 28 | 172 | 0.0 | 0.0 | 0.00 | 0.00 | 0.00 | 83 | 1011.2 |
| 20260905003016 | 29 | 172 | 0.0 | 0.0 | 0.00 | 0.00 | 0.00 | 81 | 1011.2 |
| 20260905002528 | 29 | 172 | 0.0 | 0.0 | 0.00 | 0.00 | 0.00 | 81 | 1011.1 |
| 20260905002048 | 29 | 172 | 0.0 | 0.0 | 0.00 | 0.00 | 0.00 | 81 | 1011.1 |
| 20260905001605 | 29 | 172 | 0.0 | 0.0 | 0.00 | 0.00 | 0.00 | 80 | 1011.1 |
| 20260905001016 | 30 | 172 | 0.0 | 0.0 | 0.00 | 0.00 | 0.00 | 79 | 1011.1 |
| 20260905000526 | 30 | 172 | 0.0 | 0.0 | 0.00 | 0.00 | 0.00 | 79 | 1011.2 |
| 20260905000047 | 30 | 172 | 0.0 | 0.0 | 0.00 | 0.00 | 0.00 | 79 | 1011.2 |
| 20260904235553 | 30 | 172 | 0.0 | 0.0 | 0.00 | 0.00 | 0.00 | 78 | 1011.3 |
| 20260904235501 | 30 | 172 | 0.0 | 0.0 | 0.00 | 0.00 | 0.00 | 78 | 1011.2 |
| 20260904235011 | 30 | 172 | 0.0 | 0.0 | 0.00 | 0.00 | 0.00 | 78 | 1011.3 |
| 20260904234528 | 30 | 172 | 0.0 | 0.0 | 0.00 | 0.00 | 0.00 | 77 | 1011.3 |
| 20260904234041 | 30 | 172 | 0.0 | 0.0 | 0.00 | 0.00 | 0.00 | 76 | 1011.2 |
| 20260904233556 | 30 | 172 | 0.0 | 0.0 | 0.00 | 0.00 | 0.00 | 75 | 1011.3 |
| 20260904233009 | 31 | 172 | 0.0 | 0.0 | 0.00 | 0.00 | 0.00 | 75 | 1011.4 |
| 20260904232523 | 31 | 172 | 0.0 | 0.0 | 0.00 | 0.00 | 0.00 | 75 | 1011.4 |
| 20260904232032 | 31 | 172 | 0.0 | 0.0 | 0.00 | 0.00 | 0.00 | 74 | 1011.4 |
| 20260904231546 | 31 | 172 | 0.0 | 0.0 | 0.00 | 0.00 | 0.00 | 74 | 1011.4 |
| 20260904231056 | 31 | 172 | 0.0 | 0.0 | 0.00 | 0.00 | 0.00 | 73 | 1011.3 |
| 20260904230514 | 31 | 172 | 0.0 | 0.0 | 0.00 | 0.00 | 0.00 | 72 | 1011.3 |
| 20260904230027 | 31 | 172 | 0.0 | 0.0 | 0.00 | 0.00 | 0.00 | 71 | 1011.3 |
| 20260904225542 | 32 | 172 | 0.0 | 0.0 | 0.00 | 0.00 | 0.00 | 72 | 1011.3 |
| 20260904225056 | 32 | 172 | 0.0 | 0.0 | 0.00 | 0.00 | 0.00 | 70 | 1011.3 |